sat.trackr.live / text

‹ back to catalog

STARLINK-33674

NORAD 63329 · 2025-057Y

PAYLOAD ACTIVE UNKNOWN

§ Identity

Operator
Country
US
Launch date
2025-03-18
Launch site
AFETR
Launch vehicle
Mass (kg)
RCS (m²)

Purposes: comms

External: N2YO · Heavens-Above · Gunter

§ Orbital elements

Epoch: 2026-05-25T04:07:43.613184Z

Period
94.27 min
Inclination
43.0042°
Eccentricity
0.0001894
Mean motion
15.27600978 rev/d
Perigee alt
481.7 km
Apogee alt
484.3 km
Semi-major
6,861.1 km
B*
8.9563e-4
RAAN
318.9850°
Arg perigee
274.9252°
Mean anomaly
85.1383°
Rev number
6,747

§ Raw data

STARLINK-336741 63329U 25057Y   26145.17203256  .00024481  00000+0  89563-3 0  99982 63329  43.0042 318.9850 0001894 274.9252  85.1383 15.27600978 67472

JSON: /api/v1/satellites/63329 · /tle

For live sub-satellite position, see the globe view (requires WebGL).

§ Visibility from observer

Set your observer location to see the next 7 days of passes ≥ 10°. The values pass through the URL so the page stays shareable.

No JS? Fill the form by hand. The geolocation button needs JavaScript.